Time,TemperatureF,DewpointF,PressureIn,WindDirection,WindDirectionDegrees,WindSpeedMPH,WindSpeedGustMPH,Humidity,HourlyPrecipIn,Conditions,Clouds,dailyrainin,SoftwareType,DateUTC
2013-07-13 00:09:00,66.0,57.1,30.12,ENE,57,0.0,0.0,73,0.00,,CLR,0.00,VWS V14.00,2013-07-13 05:09:00,
2013-07-13 00:19:00,66.0,57.1,30.12,East,79,0.0,0.0,73,0.00,,CLR,0.00,VWS V14.00,2013-07-13 05:19:00,
2013-07-13 00:29:00,65.8,57.3,30.12,East,82,0.0,0.0,74,0.00,,CLR,0.00,VWS V14.00,2013-07-13 05:29:00,
2013-07-13 00:39:00,65.5,57.0,30.12,ENE,65,0.0,0.0,74,0.00,,CLR,0.00,VWS V14.00,2013-07-13 05:39:00,
2013-07-13 00:49:00,65.1,57.4,30.12,ENE,67,0.0,0.0,76,0.00,,CLR,0.00,VWS V14.00,2013-07-13 05:49:00,
2013-07-13 00:59:00,64.9,57.2,30.12,ENE,66,0.0,0.0,76,0.00,,CLR,0.00,VWS V14.00,2013-07-13 05:59:00,
2013-07-13 01:09:00,64.9,57.2,30.12,ENE,64,0.0,6.3,76,0.00,,CLR,0.00,VWS V14.00,2013-07-13 06:09:00,
2013-07-13 01:19:00,65.1,57.7,30.12,East,88,0.0,0.0,77,0.00,,CLR,0.00,VWS V14.00,2013-07-13 06:19:00,
2013-07-13 01:29:00,65.1,57.7,30.12,East,79,0.0,5.4,77,0.00,,CLR,0.00,VWS V14.00,2013-07-13 06:29:00,
2013-07-13 01:40:00,64.6,57.6,30.12,ENE,78,0.0,0.0,78,0.00,,CLR,0.00,VWS V14.00,2013-07-13 06:40:00,
2013-07-13 01:50:00,64.2,57.9,30.12,East,79,0.0,0.0,80,0.00,,CLR,0.00,VWS V14.00,2013-07-13 06:50:00,
2013-07-13 02:00:00,64.0,57.8,30.12,East,79,0.0,0.0,80,0.00,,CLR,0.00,VWS V14.00,2013-07-13 07:00:00,
2013-07-13 02:10:00,63.3,57.4,30.12,East,79,0.0,0.0,81,0.00,,CLR,0.00,VWS V14.00,2013-07-13 07:10:00,
2013-07-13 02:19:00,63.0,57.7,30.15,East,79,0.0,0.0,83,0.00,,CLR,0.00,VWS V14.00,2013-07-13 07:19:00,
2013-07-13 02:29:00,63.0,58.1,30.15,East,79,0.0,0.0,84,0.00,,CLR,0.00,VWS V14.00,2013-07-13 07:29:00,
2013-07-13 02:39:00,62.8,57.9,30.15,East,79,0.0,0.0,84,0.00,,CLR,0.00,VWS V14.00,2013-07-13 07:39:00,
2013-07-13 02:49:00,62.8,57.9,30.15,ENE,78,0.0,0.0,84,0.00,,CLR,0.00,VWS V14.00,2013-07-13 07:49:00,
2013-07-13 02:59:00,62.6,58.0,30.15,East,79,0.0,0.0,85,0.00,,CLR,0.00,VWS V14.00,2013-07-13 07:59:00,
2013-07-13 03:09:00,62.4,58.2,30.15,ENE,78,0.0,0.0,86,0.00,,CLR,0.00,VWS V14.00,2013-07-13 08:09:00,
2013-07-13 03:19:00,62.4,58.5,30.15,East,79,0.0,0.0,87,0.00,,CLR,0.00,VWS V14.00,2013-07-13 08:19:00,
2013-07-13 03:29:00,62.2,58.3,30.15,East,79,0.0,0.0,87,0.00,,CLR,0.00,VWS V14.00,2013-07-13 08:29:00,
2013-07-13 03:39:00,62.4,58.5,30.15,ENE,72,0.0,0.0,87,0.00,,CLR,0.00,VWS V14.00,2013-07-13 08:39:00,
2013-07-13 03:49:00,62.4,58.5,30.15,ENE,72,0.0,0.0,87,0.00,,CLR,0.00,VWS V14.00,2013-07-13 08:49:00,
2013-07-13 03:59:00,62.2,58.3,30.15,ENE,70,0.0,0.0,87,0.00,,CLR,0.00,VWS V14.00,2013-07-13 08:59:00,
2013-07-13 04:09:00,62.1,58.5,30.15,ENE,69,0.0,0.0,88,0.00,,CLR,0.00,VWS V14.00,2013-07-13 09:09:00,
2013-07-13 04:19:00,61.9,58.6,30.15,East,101,0.0,0.0,89,0.00,,CLR,0.00,VWS V14.00,2013-07-13 09:19:00,
2013-07-13 04:29:00,61.9,58.6,30.15,East,83,0.0,0.0,89,0.00,,CLR,0.00,VWS V14.00,2013-07-13 09:29:00,
2013-07-13 04:39:00,61.9,58.6,30.15,ENE,74,0.0,0.0,89,0.00,,CLR,0.00,VWS V14.00,2013-07-13 09:39:00,
2013-07-13 04:49:00,61.5,58.2,30.15,ENE,74,0.0,0.0,89,0.00,,CLR,0.00,VWS V14.00,2013-07-13 09:49:00,
2013-07-13 04:59:00,61.5,58.6,30.15,ENE,74,0.0,0.0,90,0.00,,CLR,0.00,VWS V14.00,2013-07-13 09:59:00,
2013-07-13 05:09:00,61.5,58.6,30.15,ENE,74,0.0,0.0,90,0.00,,CLR,0.00,VWS V14.00,2013-07-13 10:09:00,
2013-07-13 05:19:00,61.3,58.4,30.15,ENE,74,0.0,0.0,90,0.00,,CLR,0.00,VWS V14.00,2013-07-13 10:19:00,
2013-07-13 05:29:00,61.0,58.3,30.15,ENE,74,0.0,0.0,91,0.00,,CLR,0.00,VWS V14.00,2013-07-13 10:29:00,
2013-07-13 05:40:00,60.6,58.3,30.15,ENE,74,0.0,0.0,92,0.00,,CLR,0.00,VWS V14.00,2013-07-13 10:40:00,
2013-07-13 05:50:00,60.4,58.4,30.15,ENE,74,0.0,0.0,93,0.00,,CLR,0.00,VWS V14.00,2013-07-13 10:50:00,
2013-07-13 06:00:00,60.8,58.8,30.15,ENE,74,0.0,0.0,93,0.00,,CLR,0.00,VWS V14.00,2013-07-13 11:00:00,
2013-07-13 06:10:00,61.0,59.0,30.15,ENE,74,0.0,0.0,93,0.00,,CLR,0.00,VWS V14.00,2013-07-13 11:10:00,
2013-07-13 06:19:00,61.2,59.1,30.15,ENE,74,0.0,0.0,93,0.00,,CLR,0.00,VWS V14.00,2013-07-13 11:19:00,
2013-07-13 06:30:00,61.5,59.5,30.18,ENE,74,0.0,0.0,93,0.00,,CLR,0.00,VWS V14.00,2013-07-13 11:30:00,
2013-07-13 06:39:00,62.1,60.0,30.18,ENE,62,0.0,0.0,93,0.00,,CLR,0.00,VWS V14.00,2013-07-13 11:39:00,
2013-07-13 06:49:00,63.0,60.3,30.18,ENE,62,0.0,0.0,91,0.00,,CLR,0.00,VWS V14.00,2013-07-13 11:49:00,
2013-07-13 06:59:00,63.9,60.9,30.18,East,91,0.0,0.0,90,0.00,,CLR,0.00,VWS V14.00,2013-07-13 11:59:00,
2013-07-13 07:09:00,64.6,61.0,30.18,ESE,107,0.0,5.4,88,0.00,,CLR,0.00,VWS V14.00,2013-07-13 12:09:00,
2013-07-13 07:19:00,65.5,61.2,30.18,ESE,112,0.0,7.2,86,0.00,,CLR,0.00,VWS V14.00,2013-07-13 12:19:00,
2013-07-13 07:29:00,66.0,61.0,30.18,NNE,24,0.0,0.0,84,0.00,,CLR,0.00,VWS V14.00,2013-07-13 12:29:00,
2013-07-13 07:39:00,66.6,61.2,30.18,North,349,0.0,0.0,83,0.00,,CLR,0.00,VWS V14.00,2013-07-13 12:39:00,
2013-07-13 07:49:00,67.1,61.4,30.18,ENE,78,0.0,0.0,82,0.00,,CLR,0.00,VWS V14.00,2013-07-13 12:49:00,
2013-07-13 07:59:00,67.8,61.8,30.18,ESE,112,0.0,6.3,81,0.00,,CLR,0.00,VWS V14.00,2013-07-13 12:59:00,
2013-07-13 08:09:00,68.4,61.6,30.18,ENE,74,0.0,7.2,79,0.00,,CLR,0.00,VWS V14.00,2013-07-13 13:09:00,
2013-07-13 08:19:00,69.3,62.1,30.18,ENE,75,5.4,8.1,78,0.00,,CLR,0.00,VWS V14.00,2013-07-13 13:19:00,
2013-07-13 08:29:00,70.2,61.9,30.18,ENE,66,6.3,8.1,75,0.00,,CLR,0.00,VWS V14.00,2013-07-13 13:29:00,
2013-07-13 08:39:00,71.1,62.4,30.18,ENE,74,6.3,8.9,74,0.00,,CLR,0.00,VWS V14.00,2013-07-13 13:39:00,
2013-07-13 08:49:00,72.0,62.8,30.18,East,87,5.4,9.8,73,0.00,,CLR,0.00,VWS V14.00,2013-07-13 13:49:00,
2013-07-13 08:59:00,72.7,62.7,30.18,ENE,77,4.5,9.8,71,0.00,,CLR,0.00,VWS V14.00,2013-07-13 13:59:00,
2013-07-13 09:09:00,73.4,63.0,30.18,SSE,166,5.4,9.8,70,0.00,,CLR,0.00,VWS V14.00,2013-07-13 14:09:00,
2013-07-13 09:19:00,74.1,63.3,30.18,ESE,104,7.2,8.1,69,0.00,,CLR,0.00,VWS V14.00,2013-07-13 14:19:00,
2013-07-13 09:29:00,74.8,62.7,30.18,ESE,105,5.4,10.7,66,0.00,,CLR,0.00,VWS V14.00,2013-07-13 14:29:00,
2013-07-13 09:40:00,75.6,62.5,30.18,SE,145,7.2,11.6,64,0.00,,CLR,0.00,VWS V14.00,2013-07-13 14:40:00,
2013-07-13 09:50:00,76.1,63.0,30.18,South,175,7.2,9.8,64,0.00,,CLR,0.00,VWS V14.00,2013-07-13 14:50:00,
2013-07-13 10:00:00,76.6,62.2,30.18,SE,145,11.6,11.6,61,0.00,,CLR,0.00,VWS V14.00,2013-07-13 15:00:00,
2013-07-13 10:10:00,77.4,61.0,30.18,SSW,207,5.4,11.6,57,0.00,,CLR,0.00,VWS V14.00,2013-07-13 15:10:00,
2013-07-13 10:19:00,77.9,60.5,30.18,ENE,78,6.3,12.5,55,0.00,,CLR,0.00,VWS V14.00,2013-07-13 15:19:00,
2013-07-13 10:29:00,78.1,58.5,30.18,ESE,117,0.0,11.6,51,0.00,,CLR,0.00,VWS V14.00,2013-07-13 15:29:00,
2013-07-13 10:39:00,78.4,59.9,30.18,East,100,7.2,11.6,53,0.00,,CLR,0.00,VWS V14.00,2013-07-13 15:39:00,
2013-07-13 10:49:00,78.6,58.4,30.18,ENE,67,6.3,16.1,50,0.00,,CLR,0.00,VWS V14.00,2013-07-13 15:49:00,
2013-07-13 10:59:00,78.8,59.2,30.18,ENE,62,4.5,10.7,51,0.00,,CLR,0.00,VWS V14.00,2013-07-13 15:59:00,
2013-07-13 11:09:00,79.2,59.5,30.18,South,182,7.2,16.1,51,0.00,,CLR,0.00,VWS V14.00,2013-07-13 16:09:00,
2013-07-13 11:19:00,79.7,58.9,30.18,ENE,73,6.3,12.5,49,0.00,,CLR,0.00,VWS V14.00,2013-07-13 16:19:00,
2013-07-13 11:29:00,79.0,59.9,30.18,SSE,160,8.1,9.8,52,0.00,,CLR,0.00,VWS V14.00,2013-07-13 16:29:00,
2013-07-13 11:39:00,79.9,57.9,30.18,ESE,114,6.3,12.5,47,0.00,,CLR,0.00,VWS V14.00,2013-07-13 16:39:00,
2013-07-13 11:49:00,80.6,58.5,30.18,ESE,118,7.2,13.4,47,0.00,,CLR,0.00,VWS V14.00,2013-07-13 16:49:00,
2013-07-13 11:59:00,80.1,58.0,30.18,ENE,74,8.1,11.6,47,0.00,,CLR,0.00,VWS V14.00,2013-07-13 16:59:00,
2013-07-13 12:09:00,79.7,58.3,30.18,NE,55,8.1,12.5,48,0.00,,CLR,0.00,VWS V14.00,2013-07-13 17:09:00,
2013-07-13 12:19:00,80.6,58.5,30.15,ESE,121,5.4,11.6,47,0.00,,CLR,0.00,VWS V14.00,2013-07-13 17:19:00,
2013-07-13 12:29:00,81.1,57.8,30.15,ESE,117,4.5,13.4,45,0.00,,CLR,0.00,VWS V14.00,2013-07-13 17:29:00,
2013-07-13 12:39:00,81.5,58.1,30.15,East,91,6.3,16.6,45,0.00,,CLR,0.00,VWS V14.00,2013-07-13 17:39:00,
2013-07-13 12:49:00,81.5,57.5,30.15,ENE,72,7.2,12.5,44,0.00,,CLR,0.00,VWS V14.00,2013-07-13 17:49:00,
2013-07-13 12:59:00,81.7,57.7,30.15,NE,37,8.1,16.1,44,0.00,,CLR,0.00,VWS V14.00,2013-07-13 17:59:00,
2013-07-13 13:09:00,81.9,57.2,30.15,East,79,7.2,19.2,43,0.00,,CLR,0.00,VWS V14.00,2013-07-13 18:09:00,
2013-07-13 13:19:00,82.2,56.2,30.15,ENE,70,6.3,16.1,41,0.00,,CLR,0.00,VWS V14.00,2013-07-13 18:19:00,
2013-07-13 13:29:00,82.2,56.9,30.15,NNE,19,5.4,17.4,42,0.00,,CLR,0.00,VWS V14.00,2013-07-13 18:29:00,
2013-07-13 13:40:00,81.7,56.4,30.15,East,97,9.8,16.1,42,0.00,,CLR,0.00,VWS V14.00,2013-07-13 18:40:00,
2013-07-13 13:50:00,81.9,57.2,30.15,ENE,67,7.2,11.6,43,0.00,,CLR,0.00,VWS V14.00,2013-07-13 18:50:00,
2013-07-13 14:00:00,82.6,56.5,30.15,East,86,7.2,14.3,41,0.00,,CLR,0.00,VWS V14.00,2013-07-13 19:00:00,
2013-07-13 14:10:00,82.6,56.5,30.15,SE,143,5.4,16.6,41,0.00,,CLR,0.00,VWS V14.00,2013-07-13 19:10:00,
2013-07-13 14:20:00,82.6,55.8,30.15,SSE,167,12.5,13.4,40,0.00,,CLR,0.00,VWS V14.00,2013-07-13 19:20:00,
2013-07-13 14:30:00,82.9,56.2,30.15,South,177,6.3,17.4,40,0.00,,CLR,0.00,VWS V14.00,2013-07-13 19:30:00,
2013-07-13 14:39:00,82.9,56.8,30.15,WNW,297,4.5,12.5,41,0.00,,CLR,0.00,VWS V14.00,2013-07-13 19:39:00,
2013-07-13 14:49:00,82.9,56.8,30.15,South,175,12.5,16.6,41,0.00,,CLR,0.00,VWS V14.00,2013-07-13 19:49:00,
2013-07-13 14:59:00,83.3,57.2,30.15,South,181,5.4,12.5,41,0.00,,CLR,0.00,VWS V14.00,2013-07-13 19:59:00,
2013-07-13 15:09:00,83.3,57.2,30.15,SE,134,8.1,15.2,41,0.00,,CLR,0.00,VWS V14.00,2013-07-13 20:09:00,
2013-07-13 15:19:00,83.5,57.3,30.15,SSW,197,10.7,12.5,41,0.00,,CLR,0.00,VWS V14.00,2013-07-13 20:19:00,
2013-07-13 15:29:00,83.3,56.5,30.12,East,98,6.3,14.3,40,0.00,,CLR,0.00,VWS V14.00,2013-07-13 20:29:00,
2013-07-13 15:39:00,83.5,57.3,30.12,East,79,10.7,15.2,41,0.00,,CLR,0.00,VWS V14.00,2013-07-13 20:39:00,
2013-07-13 15:49:00,83.3,57.2,30.12,NE,49,5.4,11.6,41,0.00,,CLR,0.00,VWS V14.00,2013-07-13 20:49:00,
2013-07-13 15:59:00,83.5,57.3,30.12,South,184,5.4,13.4,41,0.00,,CLR,0.00,VWS V14.00,2013-07-13 20:59:00,
2013-07-13 16:09:00,83.7,56.8,30.12,ESE,115,7.2,12.5,40,0.00,,CLR,0.00,VWS V14.00,2013-07-13 21:09:00,
2013-07-13 16:19:00,83.5,57.3,30.12,SW,215,6.3,16.1,41,0.00,,CLR,0.00,VWS V14.00,2013-07-13 21:19:00,
2013-07-13 16:29:00,83.5,57.3,30.12,SE,138,6.3,10.7,41,0.00,,CLR,0.00,VWS V14.00,2013-07-13 21:29:00,
2013-07-13 16:39:00,83.3,57.2,30.12,ESE,123,7.2,10.7,41,0.00,,CLR,0.00,VWS V14.00,2013-07-13 21:39:00,
2013-07-13 16:49:00,83.3,57.8,30.12,SE,129,8.1,12.5,42,0.00,,CLR,0.00,VWS V14.00,2013-07-13 21:49:00,
2013-07-13 16:59:00,83.3,57.8,30.12,SE,144,5.4,12.5,42,0.00,,CLR,0.00,VWS V14.00,2013-07-13 21:59:00,
2013-07-13 17:09:00,83.7,58.2,30.12,SSE,149,7.2,12.5,42,0.00,,CLR,0.00,VWS V14.00,2013-07-13 22:09:00,
2013-07-13 17:19:00,83.5,58.0,30.12,South,181,5.4,12.5,42,0.00,,CLR,0.00,VWS V14.00,2013-07-13 22:19:00,
2013-07-13 17:29:00,83.3,57.8,30.12,ESE,112,8.1,12.5,42,0.00,,CLR,0.00,VWS V14.00,2013-07-13 22:29:00,
2013-07-13 17:40:00,83.1,57.7,30.12,South,176,0.0,12.5,42,0.00,,CLR,0.00,VWS V14.00,2013-07-13 22:40:00,
2013-07-13 17:50:00,83.1,58.3,30.12,ESE,118,0.0,12.5,43,0.00,,CLR,0.00,VWS V14.00,2013-07-13 22:50:00,
2013-07-13 18:00:00,82.8,58.0,30.12,East,80,7.2,12.5,43,0.00,,CLR,0.00,VWS V14.00,2013-07-13 23:00:00,
2013-07-13 18:10:00,82.4,58.3,30.12,South,173,0.0,11.6,44,0.00,,CLR,0.00,VWS V14.00,2013-07-13 23:10:00,
2013-07-13 18:20:00,82.2,58.2,30.12,SSE,163,5.4,12.5,44,0.00,,CLR,0.00,VWS V14.00,2013-07-13 23:20:00,
2013-07-13 18:29:00,82.0,58.6,30.12,SSE,150,5.4,12.5,45,0.00,,CLR,0.00,VWS V14.00,2013-07-13 23:29:00,
2013-07-13 18:39:00,81.9,59.1,30.12,East,81,5.4,8.1,46,0.00,,CLR,0.00,VWS V14.00,2013-07-13 23:39:00,
2013-07-13 18:49:00,81.7,59.5,30.12,SE,134,0.0,8.1,47,0.00,,CLR,0.00,VWS V14.00,2013-07-13 23:49:00,
2013-07-13 18:59:00,81.5,59.3,30.12,SE,140,0.0,8.1,47,0.00,,CLR,0.00,VWS V14.00,2013-07-13 23:59:00,
2013-07-13 19:09:00,81.0,60.0,30.12,SE,124,0.0,7.2,49,0.00,,CLR,0.00,VWS V14.00,2013-07-14 00:09:00,
2013-07-13 19:19:00,80.6,60.3,30.12,ESE,112,0.0,5.4,50,0.00,,CLR,0.00,VWS V14.00,2013-07-14 00:19:00,
2013-07-13 19:29:00,80.1,60.9,30.12,ESE,109,0.0,7.2,52,0.00,,CLR,0.00,VWS V14.00,2013-07-14 00:29:00,
2013-07-13 19:39:00,79.5,60.9,30.12,East,87,0.0,7.2,53,0.00,,CLR,0.00,VWS V14.00,2013-07-14 00:39:00,
2013-07-13 19:49:00,78.8,61.8,30.12,East,94,0.0,4.5,56,0.00,,CLR,0.00,VWS V14.00,2013-07-14 00:49:00,
2013-07-13 19:59:00,78.3,62.3,30.12,ESE,108,0.0,0.0,58,0.00,,CLR,0.00,VWS V14.00,2013-07-14 00:59:00,
2013-07-13 20:09:00,77.9,62.4,30.12,ESE,117,0.0,5.4,59,0.00,,CLR,0.00,VWS V14.00,2013-07-14 01:09:00,
2013-07-13 20:19:00,77.4,61.9,30.12,ESE,106,6.3,7.2,59,0.00,,CLR,0.00,VWS V14.00,2013-07-14 01:19:00,
2013-07-13 20:29:00,76.8,61.9,30.12,East,93,0.0,7.2,60,0.00,,CLR,0.00,VWS V14.00,2013-07-14 01:29:00,
2013-07-13 20:39:00,76.5,62.0,30.12,East,96,0.0,5.4,61,0.00,,CLR,0.00,VWS V14.00,2013-07-14 01:39:00,
2013-07-13 20:49:00,75.7,62.3,30.15,ESE,113,0.0,7.2,63,0.00,,CLR,0.00,VWS V14.00,2013-07-14 01:49:00,
2013-07-13 20:59:00,75.0,62.5,30.15,NE,49,0.0,4.5,65,0.00,,CLR,0.00,VWS V14.00,2013-07-14 01:59:00,
2013-07-13 21:09:00,74.1,62.5,30.15,ESE,113,0.0,7.2,67,0.00,,CLR,0.00,VWS V14.00,2013-07-14 02:09:00,
2013-07-13 21:19:00,73.8,62.1,30.15,ESE,108,0.0,5.4,67,0.00,,CLR,0.00,VWS V14.00,2013-07-14 02:19:00,
2013-07-13 21:30:00,73.9,62.3,30.15,ENE,77,5.4,8.1,67,0.00,,CLR,0.00,VWS V14.00,2013-07-14 02:30:00,
2013-07-13 21:40:00,73.9,62.3,30.15,ESE,111,0.0,7.2,67,0.00,,CLR,0.00,VWS V14.00,2013-07-14 02:40:00,
2013-07-13 21:50:00,73.9,62.3,30.15,ESE,112,0.0,5.4,67,0.00,,CLR,0.00,VWS V14.00,2013-07-14 02:50:00,
2013-07-13 21:59:00,73.6,62.0,30.15,ENE,69,4.5,7.2,67,0.00,,CLR,0.00,VWS V14.00,2013-07-14 02:59:00,
2013-07-13 22:09:00,73.2,62.0,30.15,SE,126,0.0,10.7,68,0.00,,CLR,0.00,VWS V14.00,2013-07-14 03:09:00,
2013-07-13 22:19:00,72.9,61.7,30.15,ESE,122,0.0,8.1,68,0.00,,CLR,0.00,VWS V14.00,2013-07-14 03:19:00,
2013-07-13 22:29:00,72.7,61.5,30.18,East,98,0.0,4.5,68,0.00,,CLR,0.00,VWS V14.00,2013-07-14 03:29:00,
2013-07-13 22:39:00,72.3,61.6,30.18,ESE,105,0.0,8.1,69,0.00,,CLR,0.00,VWS V14.00,2013-07-14 03:39:00,
2013-07-13 22:49:00,72.1,61.4,30.18,ENE,63,0.0,8.1,69,0.00,,CLR,0.00,VWS V14.00,2013-07-14 03:49:00,
2013-07-13 22:59:00,71.8,61.5,30.18,NE,54,0.0,8.1,70,0.00,,CLR,0.00,VWS V14.00,2013-07-14 03:59:00,
2013-07-13 23:09:00,71.6,61.3,30.18,East,79,0.0,8.1,70,0.00,,CLR,0.00,VWS V14.00,2013-07-14 04:09:00,
2013-07-13 23:19:00,71.2,61.0,30.18,NE,45,0.0,0.0,70,0.00,,CLR,0.00,VWS V14.00,2013-07-14 04:19:00,
2013-07-13 23:29:00,70.3,60.9,30.18,ENE,62,0.0,0.0,72,0.00,,CLR,0.00,VWS V14.00,2013-07-14 04:29:00,
2013-07-13 23:39:00,70.2,60.7,30.18,ESE,109,0.0,6.3,72,0.00,,CLR,0.00,VWS V14.00,2013-07-14 04:39:00,
2013-07-13 23:49:00,70.0,60.5,30.18,ENE,74,0.0,4.5,72,0.00,,CLR,0.00,VWS V14.00,2013-07-14 04:49:00,
2013-07-13 23:59:00,70.0,60.5,30.18,ENE,76,0.0,6.3,72,0.00,,CLR,0.00,VWS V14.00,2013-07-14 04:59:00,